Location: Bergnerzell
(49.1816°N, 10.2565°E)
Time: 10:57:02
(UTC+00:00)

CZ-6A DEB - Visible Passes

Search period start: 06 October 2024 00:00
Search period end: 16 October 2024 00:00
Orbit: 820 x 879 km, 98.8° (Epoch: 05 October)

Date Brightness Start Highest point End Pass type
(mag) Time Alt. Az. Time Alt. Az. Time Alt. Az.
06 Oct ? 04:42:38 10° NNE 04:47:46 33° E 04:52:49 10° SSE visible
06 Oct ? 17:56:12 10° SW 17:59:44 17° W 18:03:19 10° NW visible
07 Oct ? 04:30:48 10° NE 04:35:35 27° E 04:40:18 10° SSE visible
07 Oct ? 17:43:21 10° SW 17:47:29 21° W 17:51:42 10° NW visible
08 Oct ? 04:19:01 10° NE 04:23:22 22° E 04:27:39 10° SE visible
08 Oct ? 17:30:39 10° SSW 17:35:15 26° W 17:39:56 10° NW visible
09 Oct ? 04:07:20 10° NE 04:11:06 18° E 04:14:48 10° SE visible
09 Oct ? 17:18:04 10° SSW 17:23:00 32° W 17:28:02 10° NNW visible
10 Oct ? 03:55:50 10° NE 03:58:46 14° E 04:01:40 10° ESE visible
10 Oct ? 17:05:34 10° SSW 17:10:45 40° W 17:16:03 10° NNW visible
11 Oct ? 03:44:54 10° ENE 03:46:24 11° E 03:47:54 10° E visible
13 Oct ? 04:58:15 10° NNE 05:03:39 44° E 05:08:58 10° S visible
13 Oct ? 18:13:15 10° WSW 18:15:39 13° W 18:18:05 10° WNW visible
14 Oct ? 04:46:10 10° NNE 04:51:20 35° E 04:56:25 10° SSE visible
14 Oct ? 17:59:49 10° SW 18:03:13 16° W 18:06:39 10° NW visible
15 Oct ? 04:34:07 10° NE 04:38:58 29° E 04:43:45 10° SSE visible
15 Oct ? 17:46:43 10° SW 17:50:46 20° W 17:54:53 10° NW visible
